Location: ????????
(54.6123°N, 39.2099°E)
Time: 02:36:12
(UTC+00:00)

Sich 1 - Pass Details

Date: 19 May 2025
Orbit: 574 x 603 km, 82.5° (Epoch: 14 June)

Event Time Altitude Azimuth Distance (km) Brightness Sun altitude
Rises 20:53:18 0° 345° (NNW) 2,842 8.2 -15.2°
Reaches altitude 10° 20:55:33 10° 341° (NNW) 1,931 6.9 -15.2°
Maximum altitude 20:59:42 53° 265° (W) 724 3.4 -15.3°
Enters shadow 21:01:51 26° 199° (SSW) 1,177 4.0 -15.3°
